This demonstration page uses our WeatherBlox Daily Observations layout. Learn more.

Left ArrowRight Arrow

Hourly Observations for October 16, 2015

Temp ( °F °C ) Dew Point ( °F °C ) Humidity (%) Winds ( mph kmh ) Pressure ( in mb ) Visibility ( mi km ) Precip ( " mm )
12:15 am 00:15 Clear 37 2.5 32 0.1 84 84 W 5 7 30.53 1034 10 16 N/A
12:35 am 00:35 Clear 36 2.1 32 0.1 87 87 W 5 7 30.53 1034 10 16 N/A
12:55 am 00:55 Clear 35 1.9 32 -0.1 87 87 W 6 9 30.56 1035 10 16 N/A
1:15 am 01:15 Clear 35 1.7 32 -0.2 87 87 W 5 7 30.56 1035 10 16 N/A
1:35 am 01:35 Clear 35 1.4 31 -0.6 87 87 WNW 6 9 30.59 1036 10 16 N/A
1:55 am 01:55 Clear 35 1.5 31 -0.6 86 86 WNW 7 11 30.56 1035 10 16 N/A
2:15 am 02:15 Clear 33 0.8 31 -0.7 90 90 WNW 5 7 30.59 1036 10 16 N/A
2:35 am 02:35 Clear 35 1.6 32 0 89 89 W 5 7 30.56 1035 10 16 N/A
2:55 am 02:55 Clear 34 1 31 -0.8 88 88 WNW 5 7 30.59 1036 10 16 N/A
3:15 am 03:15 Clear 35 1.7 32 -0.2 87 87 Calm 30.56 1035 10 16 N/A
3:35 am 03:35 Clear 35 1.5 31 -0.3 88 88 N 5 7 30.56 1035 10 16 N/A
3:55 am 03:55 Clear 33 0.5 31 -0.7 92 92 NW 3 6 30.59 1036 10 16 N/A
4:15 am 04:15 Clear 34 1.1 31 -0.5 89 89 Calm 30.59 1036 10 16 N/A
4:35 am 04:35 Clear 33 0.5 30 -1 90 90 N 5 7 30.59 1036 10 16 N/A
4:55 am 04:55 Clear 32 0.2 29 -1.4 89 89 Calm 30.59 1036 10 16 N/A
5:15 am 05:15 Clear 32 0 29 -1.5 90 90 W 6 9 30.59 1036 10 16 N/A
5:35 am 05:35 Clear 32 0.2 30 -1 92 92 NW 5 7 30.59 1036 10 16 N/A
5:55 am 05:55 Clear 32 0.2 30 -1.3 90 90 N 6 9 30.59 1036 10 16 N/A
6:15 am 06:15 Clear 32 0 29 -1.4 90 90 W 6 9 30.62 1037 10 16 N/A
6:35 am 06:35 Clear 32 0 29 -1.5 90 90 WNW 5 7 30.62 1037 10 16 N/A
6:55 am 06:55 Clear 32 0 29 -1.5 90 90 WNW 3 6 30.62 1037 10 16 N/A
7:15 am 07:15 Clear 32 -0.1 29 -1.8 88 88 WNW 3 6 30.62 1037 10 16 N/A
7:35 am 07:35 Clear 32 0 29 -1.4 90 90 Calm 30.62 1037 10 16 N/A
7:55 am 07:55 Sunny 31 -0.5 29 -1.8 91 91 WSW 6 9 30.62 1037 10 16 N/A
8:15 am 08:15 Sunny 31 -0.3 29 -1.6 91 91 W 5 7 30.62 1037 10 16 N/A
8:35 am 08:35 Sunny 32 0 30 -1.2 92 92 W 5 7 30.62 1037 10 16 N/A
8:55 am 08:55 Sunny 35 1.6 32 0 89 89 Calm 30.65 1038 10 16 N/A
9:15 am 09:15 Sunny 39 3.7 34 1.3 85 85 Calm 30.62 1037 10 16 N/A
9:35 am 09:35 Sunny 42 5.4 35 1.8 78 78 Calm 30.62 1037 7 11 N/A
9:55 am 09:55 Sunny 45 7 34 0.9 65 65 Calm 30.59 1036 10 16 N/A
10:15 am 10:15 Sunny 47 8.1 32 0.2 58 58 Calm 30.59 1036 10 16 N/A
10:35 am 10:35 Sunny 49 9.6 31 -0.3 50 50 E 6 9 30.53 1034 10 16 N/A
10:55 am 10:55 Sunny 51 10.5 30 -1.2 44 44 SE 6 9 30.53 1034 10 16 N/A
11:15 am 11:15 Sunny 53 11.4 30 -0.9 43 43 SE 6 9 30.53 1034 10 16 N/A
11:35 am 11:35 Sunny 54 12.2 29 -1.6 39 39 SE 7 11 30.50 1033 10 16 N/A
11:55 am 11:55 Sunny 55 13 28 -2.1 35 35 SE 6 9 30.48 1032 10 16 N/A
12:15 pm 12:15 Sunny 56 13.3 28 -2 35 35 ESE 7 11 30.48 1032 10 16 N/A
12:35 pm 12:35 Sunny 56 13.6 29 -1.9 34 34 SE 7 11 30.48 1032 10 16 N/A
12:55 pm 12:55 Sunny 58 14.4 28 -2.2 32 32 SSE 9 15 30.45 1031 10 16 N/A
1:15 pm 13:15 Sunny 58 14.6 29 -1.9 32 32 SSE 6 9 30.42 1030 10 16 N/A
1:35 pm 13:35 Sunny 60 15.3 30 -0.9 33 33 S 6 9 30.39 1029 10 16 N/A
1:55 pm 13:55 Sunny 60 15.3 29 -1.7 31 31 S 6 9 30.36 1028 10 16 N/A
2:15 pm 14:15 Sunny 60 15.5 30 -1.1 32 32 S 5 7 30.36 1028 10 16 N/A
2:35 pm 14:35 Sunny 62 16.4 31 -0.6 32 32 SSW 7 11 30.36 1028 10 16 N/A
2:55 pm 14:55 Sunny 61 16.2 30 -0.9 31 31 S 8 13 30.36 1028 10 16 N/A
3:15 pm 15:15 Sunny 61 16.3 30 -0.9 31 31 SW 14 22 30.36 1028 10 16 N/A
3:35 pm 15:35 Sunny 62 16.5 30 -0.9 31 31 SSW 12 19 30.30 1026 10 16 N/A
3:55 pm 15:55 Sunny 62 16.5 30 -1 30 30 SSE 13 20 30.30 1026 10 16 N/A
4:15 pm 16:15 Sunny 62 16.9 31 -0.6 31 31 S 9 15 30.30 1026 10 16 N/A
4:35 pm 16:35 Sunny 62 16.8 31 -0.7 31 31 S 9 15 30.30 1026 10 16 N/A
4:55 pm 16:55 Sunny 62 16.8 31 -0.8 30 30 SSW 10 17 30.30 1026 10 16 N/A
5:15 pm 17:15 Sunny 62 16.6 31 -0.7 31 31 S 6 9 30.27 1025 10 16 N/A
5:35 pm 17:35 Sunny 62 16.5 30 -1 30 30 S 10 17 30.27 1025 10 16 N/A
5:55 pm 17:55 Sunny 61 16 30 -1.3 31 31 S 10 17 30.30 1026 10 16 N/A
6:15 pm 18:15 Sunny 60 15.3 30 -1.1 33 33 SSE 9 15 30.30 1026 10 16 N/A
6:35 pm 18:35 Sunny 58 14.4 30 -1 35 35 SSE 8 13 30.30 1026 10 16 N/A
6:55 pm 18:55 Sunny 55 12.8 31 -0.7 40 40 SSE 7 11 30.30 1026 10 16 N/A
7:15 pm 19:15 Clear 54 12.4 30 -0.9 40 40 SE 7 11 30.33 1027 10 16 N/A
7:35 pm 19:35 Clear 53 11.6 31 -0.7 43 43 SE 6 9 30.33 1027 10 16 N/A
7:55 pm 19:55 Clear 52 11.3 31 -0.6 44 44 SE 7 11 30.33 1027 10 16 N/A
8:15 pm 20:15 Clear 52 11.1 30 -0.9 44 44 SE 6 9 30.33 1027 10 16 N/A
8:35 pm 20:35 Clear 51 10.3 31 -0.7 47 47 SE 8 13 30.33 1027 10 16 N/A
8:55 pm 20:55 Clear 50 10.2 30 -1.1 46 46 SE 8 13 30.33 1027 10 16 N/A
9:15 pm 21:15 Clear 50 10 29 -1.4 45 45 SE 9 15 30.33 1027 10 16 N/A
9:35 pm 21:35 Clear 50 10 29 -1.7 44 44 SE 9 15 30.33 1027 10 16 N/A
9:55 pm 21:55 Clear 50 10 29 -1.9 44 44 SE 9 15 30.33 1027 10 16 N/A
10:15 pm 22:15 Clear 49 9.2 29 -1.7 47 47 SSE 9 15 30.36 1028 10 16 N/A
10:35 pm 22:35 Clear 47 8.5 29 -1.6 49 49 SSE 8 13 30.36 1028 10 16 N/A
10:55 pm 22:55 Clear 47 8.1 29 -1.6 51 51 SSE 9 15 30.36 1028 10 16 N/A
11:15 pm 23:15 Clear 46 8 29 -1.5 51 51 SSE 9 15 30.36 1028 10 16 N/A
11:35 pm 23:35 Clear 47 8.1 29 -1.7 50 50 SSE 10 17 30.36 1028 10 16 N/A
11:55 pm 23:55 Clear 47 8.2 28 -2 49 49 SSE 9 15 30.36 1028 10 16 N/A

Powered by AerisWeather